Stündliche Wetter Holove

Heute, 20 Juni, Sonntag

Zeit Temperatur Niederschläge Wind Luftdruck Luftfeuchtigkeit
00:00 +19°C° 0 mm 2 m/S 750 mmHg 91%
01:00 +19°C° 0 mm 2 m/S 750 mmHg 92%
02:00 +18°C° 0 mm 2 m/S 750 mmHg 92%
03:00 +19°C° 0 mm 2 m/S 750 mmHg 92%
04:00 +19°C° 0 mm 2 m/S 749 mmHg 92%
05:00 +21°C° 0 mm 1 m/S 749 mmHg 91%
06:00 +21°C° 0 mm 2 m/S 749 mmHg 86%
07:00 +24°C° 0 mm 2 m/S 749 mmHg 81%
08:00 +26°C° 0 mm 2 m/S 749 mmHg 76%
09:00 +27°C° 0 mm 2 m/S 749 mmHg 72%
10:00 +28°C° 0 mm 3 m/S 749 mmHg 68%
11:00 +28°C° 0 mm 3 m/S 749 mmHg 65%
12:00 +29°C° 0 mm 3 m/S 749 mmHg 62%
13:00 +29°C° 0 mm 3 m/S 749 mmHg 60%
14:00 +30°C° 0 mm 3 m/S 749 mmHg 58%
15:00 +29°C° 0 mm 3 m/S 748 mmHg 60%
16:00 +29°C° 0 mm 2 m/S 748 mmHg 63%
17:00 +29°C° 0 mm 2 m/S 748 mmHg 66%
18:00 +27°C° 0 mm 2 m/S 748 mmHg 72%
19:00 +26°C° 0 mm 2 m/S 748 mmHg 78%
20:00 +24°C° 0 mm 2 m/S 748 mmHg 85%
21:00 +23°C° 0 mm 2 m/S 748 mmHg 86%
22:00 +21°C° 0 mm 2 m/S 748 mmHg 87%
23:00 +20°C° 0 mm 2 m/S 748 mmHg 88%

Morgen, 21 Juni, Montag

Zeit Temperatur Niederschläge Wind Luftdruck Luftfeuchtigkeit
00:00 +20°C° 0 mm 2 m/S 748 mmHg 88%
01:00 +19°C° 0 mm 2 m/S 747 mmHg 88%
02:00 +19°C° 0 mm 2 m/S 747 mmHg 88%
03:00 +19°C° 0 mm 2 m/S 747 mmHg 88%
04:00 +19°C° 0 mm 2 m/S 748 mmHg 87%
05:00 +19°C° 0 mm 2 m/S 748 mmHg 87%
06:00 +20°C° 0 mm 3 m/S 748 mmHg 82%
07:00 +21°C° 0 mm 3 m/S 748 mmHg 77%
08:00 +24°C° 0 mm 3 m/S 748 mmHg 73%
09:00 +25°C° 0 mm 4 m/S 747 mmHg 67%
10:00 +26°C° 0 mm 4 m/S 747 mmHg 62%
11:00 +28°C° 0 mm 5 m/S 747 mmHg 57%
12:00 +28°C° 0 mm 4 m/S 747 mmHg 56%
13:00 +28°C° 0 mm 4 m/S 747 mmHg 55%
14:00 +29°C° 0 mm 4 m/S 747 mmHg 54%
15:00 +29°C° 0 mm 4 m/S 747 mmHg 58%
16:00 +28°C° 0 mm 4 m/S 746 mmHg 61%
17:00 +28°C° 0 mm 4 m/S 746 mmHg 65%
18:00 +27°C° 0 mm 4 m/S 746 mmHg 71%
19:00 +25°C° 0 mm 3 m/S 746 mmHg 77%
20:00 +24°C° 0 mm 3 m/S 746 mmHg 83%
21:00 +22°C° 0 mm 3 m/S 746 mmHg 86%
22:00 +21°C° 0 mm 3 m/S 746 mmHg 89%
23:00 +20°C° 0 mm 3 m/S 746 mmHg 92%

übermorgen, 22 Juni, Dienstag

Zeit Temperatur Niederschläge Wind Luftdruck Luftfeuchtigkeit
00:00 +20°C° 0 mm 3 m/S 746 mmHg 93%
01:00 +20°C° 0 mm 3 m/S 746 mmHg 94%
02:00 +20°C° 0 mm 3 m/S 746 mmHg 95%
03:00 +20°C° 0 mm 3 m/S 746 mmHg 94%
04:00 +20°C° 0 mm 3 m/S 746 mmHg 94%
05:00 +20°C° 0 mm 3 m/S 746 mmHg 94%
06:00 +21°C° 0 mm 4 m/S 746 mmHg 87%
07:00 +23°C° 0 mm 4 m/S 746 mmHg 81%
08:00 +25°C° 0 mm 5 m/S 746 mmHg 74%
09:00 +26°C° 0 mm 5 m/S 746 mmHg 69%
10:00 +28°C° 0 mm 5 m/S 746 mmHg 64%
11:00 +29°C° 0 mm 5 m/S 746 mmHg 58%
12:00 +30°C° 0 mm 5 m/S 746 mmHg 57%
13:00 +30°C° 0 mm 5 m/S 746 mmHg 55%
14:00 +32°C° 0 mm 5 m/S 746 mmHg 53%
15:00 +32°C° 0 mm 4 m/S 746 mmHg 56%
16:00 +30°C° 0 mm 4 m/S 746 mmHg 60%
17:00 +30°C° 0 mm 4 m/S 746 mmHg 63%
18:00 +28°C° 0 mm 3 m/S 746 mmHg 70%
19:00 +27°C° 0 mm 3 m/S 746 mmHg 76%
20:00 +25°C° 0 mm 3 m/S 746 mmHg 83%
21:00 +24°C° 0 mm 3 m/S 746 mmHg 85%
22:00 +22°C° 0 mm 3 m/S 746 mmHg 88%
23:00 +21°C° 0 mm 3 m/S 747 mmHg 90%

23 Juni, Mittwoch

Zeit Temperatur Niederschläge Wind Luftdruck Luftfeuchtigkeit
00:00 +20°C° 0 mm 3 m/S 747 mmHg 91%
01:00 +19°C° 0 mm 3 m/S 747 mmHg 92%
02:00 +19°C° 0 mm 2 m/S 747 mmHg 93%
03:00 +19°C° 0 mm 2 m/S 747 mmHg 93%
04:00 +20°C° 0 mm 2 m/S 747 mmHg 92%
05:00 +20°C° 0 mm 2 m/S 747 mmHg 92%
06:00 +23°C° 0 mm 2 m/S 747 mmHg 86%
07:00 +25°C° 0 mm 3 m/S 747 mmHg 80%
08:00 +27°C° 0 mm 3 m/S 748 mmHg 74%
09:00 +28°C° 0 mm 3 m/S 748 mmHg 69%
10:00 +29°C° 0 mm 4 m/S 748 mmHg 65%
11:00 +32°C° 0 mm 4 m/S 748 mmHg 60%
12:00 +32°C° 0 mm 4 m/S 748 mmHg 58%
13:00 +33°C° 0 mm 4 m/S 748 mmHg 55%
14:00 +33°C° 0 mm 4 m/S 748 mmHg 53%
15:00 +33°C° 0 mm 4 m/S 748 mmHg 56%
16:00 +33°C° 0 mm 3 m/S 748 mmHg 59%
17:00 +33°C° 0 mm 3 m/S 747 mmHg 61%
18:00 +30°C° 0 mm 3 m/S 747 mmHg 68%
19:00 +28°C° 0 mm 3 m/S 747 mmHg 75%
20:00 +26°C° 0 mm 2 m/S 747 mmHg 82%
21:00 +25°C° 0 mm 3 m/S 747 mmHg 84%
22:00 +24°C° 0 mm 3 m/S 747 mmHg 85%
23:00 +22°C° 0 mm 3 m/S 748 mmHg 87%

24 Juni, Donnerstag

Zeit Temperatur Niederschläge Wind Luftdruck Luftfeuchtigkeit
00:00 +22°C° 0 mm 3 m/S 747 mmHg 89%
01:00 +21°C° 0 mm 3 m/S 747 mmHg 92%
02:00 +20°C° 0 mm 2 m/S 747 mmHg 94%
03:00 +20°C° 0 mm 2 m/S 747 mmHg 93%
04:00 +21°C° 0 mm 2 m/S 747 mmHg 93%
05:00 +21°C° 0 mm 2 m/S 747 mmHg 92%
06:00 +24°C° 0 mm 3 m/S 747 mmHg 86%
07:00 +25°C° 0 mm 3 m/S 747 mmHg 79%
08:00 +27°C° 0 mm 3 m/S 747 mmHg 73%
09:00 +28°C° 0 mm 3 m/S 747 mmHg 68%
10:00 +29°C° 0 mm 4 m/S 747 mmHg 62%
11:00 +32°C° 0 mm 4 m/S 747 mmHg 57%
12:00 +32°C° 0 mm 4 m/S 747 mmHg 55%
13:00 +32°C° 0 mm 4 m/S 747 mmHg 53%
14:00 +33°C° 0 mm 4 m/S 747 mmHg 50%
15:00 +33°C° 0 mm 4 m/S 746 mmHg 53%
16:00 +31°C° 0 mm 3 m/S 746 mmHg 56%
17:00 +31°C° 0 mm 3 m/S 745 mmHg 59%
18:00 +30°C° 0 mm 3 m/S 745 mmHg 66%
19:00 +28°C° 0 mm 3 m/S 745 mmHg 73%
20:00 +26°C° 0 mm 3 m/S 745 mmHg 80%
21:00 +25°C° 0 mm 3 m/S 745 mmHg 83%
22:00 +24°C° 0 mm 3 m/S 745 mmHg 85%
23:00 +22°C° 0 mm 3 m/S 745 mmHg 88%

25 Juni, Freitag

Zeit Temperatur Niederschläge Wind Luftdruck Luftfeuchtigkeit
00:00 +22°C° 0.4 mm 3 m/S 745 mmHg 90%
01:00 +21°C° 0.4 mm 3 m/S 744 mmHg 92%
02:00 +21°C° 0.4 mm 2 m/S 744 mmHg 94%
03:00 +21°C° 0.1 mm 2 m/S 744 mmHg 94%
04:00 +21°C° 0.1 mm 2 m/S 744 mmHg 94%
05:00 +23°C° 0.1 mm 2 m/S 744 mmHg 93%
06:00 +24°C° 0 mm 3 m/S 744 mmHg 87%
07:00 +26°C° 0 mm 3 m/S 744 mmHg 82%
08:00 +27°C° 0 mm 4 m/S 744 mmHg 76%
09:00 +29°C° 0 mm 4 m/S 744 mmHg 70%
10:00 +30°C° 0 mm 4 m/S 744 mmHg 65%
11:00 +32°C° 0 mm 5 m/S 744 mmHg 59%
12:00 +32°C° 0 mm 5 m/S 744 mmHg 57%
13:00 +33°C° 0 mm 4 m/S 743 mmHg 54%
14:00 +33°C° 0 mm 4 m/S 743 mmHg 51%
15:00 +33°C° 0 mm 4 m/S 743 mmHg 54%
16:00 +32°C° 0 mm 5 m/S 742 mmHg 56%
17:00 +30°C° 0 mm 5 m/S 742 mmHg 59%
18:00 +29°C° 0 mm 4 m/S 742 mmHg 66%
19:00 +27°C° 0 mm 4 m/S 742 mmHg 73%
20:00 +25°C° 0 mm 3 m/S 742 mmHg 80%
21:00 +24°C° 0 mm 3 m/S 742 mmHg 80%
22:00 +22°C° 0 mm 3 m/S 742 mmHg 81%
23:00 +22°C° 0 mm 3 m/S 742 mmHg 81%
Mehr zeigen

Wir brauchen deine Erlaubnis

Meteoprog und unser Service Anbieter werden persönliche Daten aufbewahren, so wie Cookies, Geräte Bezeichnung oder ähnliche Technologien von deinem Gerät und Prozess, so wie Persönliche Daten Inhalte und Werbungen, genauso wie social Media und den Verkehr zu analysieren.

  • Aufbewahrung und/oder Zugang zu deiner Geräte Informationen.

    Cookies, Geräte Bezeichnung oder andere Informationen, können aufbewahrt oder Zugang zu deinem Gerät erhalten, für den Grund, der oben angegeben wird.

  • Personalisierte Werbung und Inhalte, Messungen, Einblick in das Publikum und Produkt Entwicklung.

    Werbungen und Inhalte können personalisiert werden, basierend auf ein Profil. Mehr Daten können besser personalisierte Werbungen und Inhalte hinzufügen. Werbung und Inhalte können gezeigt und gemessen werden. Einblicke über das Publikum, welche die Werbung gesehen haben und den Inhalt, können abgeleitet werden. So wie Daten können genutzt werden, um es zu verbessern oder die Benutzer Erfahrung zu verbessern das System und die Software.

Wenn du “Ich stimme zu” klickst, erlaubst du uns, die Cookies zu benutzen die Geräte Bezeichnung, den Web oder ähnliche Technologien zu benutzen. Deine Settings, können in deinem Gerät bei deinem Browser geändert werden.

Für den bestimmten Zweck, berechtigten Interessen beruhen darauf, mehr als auf den Inhalt. Du kannst mehr darüber in unseren Privaten und Cookie Politik lesen.